Location: Burla
(50.9568°N, 10.4983°E)
Time: 10:24:19
(UTC+00:00)

YAOGAN 1 - Pass Details

Date: 18 January 2026
Orbit: 605 x 607 km, 97.8° (Epoch: 19 February)

Event Time Altitude Azimuth Distance (km) Brightness Sun altitude
Rises 06:09:31 0° 20° (NNE) 2,877 6.0 -9.6°
Reaches altitude 10° 06:11:50 10° 29° (NNE) 1,967 5.2 -9.3°
Maximum altitude 06:15:48 37° 97° (E) 958 4.3 -8.7°
Drops below altitude 10° 06:19:45 10° 165° (SSE) 1,950 5.7 -8.1°
Sets 06:22:02 0° 174° (S) 2,849 6.4 -7.8°
